• In Hungary
  • List of Countries
  • For 7 days
  • Water Temperature
  • Satellite Maps
  • Weather Map
  • News
  • Weather Widgets
  • user-avatar
    Login

    Hourly Weather Gundorovskiy

    Today, 14 August, Tuesday

    Time Temperature Precipitation Wind Pressure Humidity
    00:00 +25°C° 0 mm 1 mps 754 mmHg 35%
    01:00 +24°C° 0 mm 1 mps 754 mmHg 36%
    02:00 +24°C° 0 mm 2 mps 754 mmHg 37%
    03:00 +23°C° 0 mm 1 mps 754 mmHg 39%
    04:00 +23°C° 0 mm 1 mps 754 mmHg 41%
    05:00 +23°C° 0 mm 1 mps 755 mmHg 43%
    06:00 +23°C° 0 mm 1 mps 755 mmHg 45%
    07:00 +26°C° 0 mm 1 mps 755 mmHg 40%
    08:00 +28°C° 0 mm 1 mps 755 mmHg 36%
    09:00 +31°C° 0 mm 1 mps 755 mmHg 32%
    10:00 +32°C° 0 mm 1 mps 755 mmHg 29%
    11:00 +33°C° 0 mm 1 mps 755 mmHg 27%
    12:00 +34°C° 0 mm 1 mps 755 mmHg 24%
    13:00 +34°C° 0 mm 1 mps 755 mmHg 24%
    14:00 +35°C° 0 mm 1 mps 755 mmHg 23%
    15:00 +35°C° 0 mm 1 mps 754 mmHg 23%
    16:00 +35°C° 0 mm 2 mps 754 mmHg 23%
    17:00 +35°C° 0 mm 2 mps 754 mmHg 24%
    18:00 +35°C° 0 mm 2 mps 754 mmHg 24%
    19:00 +32°C° 0 mm 2 mps 754 mmHg 27%
    20:00 +31°C° 0 mm 2 mps 755 mmHg 30%
    21:00 +29°C° 0 mm 2 mps 755 mmHg 33%
    22:00 +28°C° 0 mm 2 mps 755 mmHg 34%
    23:00 +27°C° 0 mm 2 mps 755 mmHg 35%

    Tomorrow, 15 August, Wednesday

    Time Temperature Precipitation Wind Pressure Humidity
    00:00 +27°C° 0 mm 2 mps 755 mmHg 37%
    01:00 +26°C° 0 mm 2 mps 755 mmHg 38%
    02:00 +26°C° 0 mm 2 mps 755 mmHg 40%
    03:00 +25°C° 0 mm 2 mps 755 mmHg 42%
    04:00 +25°C° 0 mm 2 mps 755 mmHg 43%
    05:00 +25°C° 0 mm 2 mps 755 mmHg 44%
    06:00 +24°C° 0 mm 2 mps 755 mmHg 45%
    07:00 +27°C° 0 mm 3 mps 755 mmHg 40%
    08:00 +29°C° 0 mm 3 mps 755 mmHg 35%
    09:00 +33°C° 0 mm 3 mps 756 mmHg 31%
    10:00 +34°C° 0 mm 3 mps 756 mmHg 28%
    11:00 +35°C° 0 mm 3 mps 755 mmHg 25%
    12:00 +36°C° 0 mm 4 mps 755 mmHg 22%
    13:00 +37°C° 0 mm 4 mps 755 mmHg 21%
    14:00 +37°C° 0 mm 4 mps 755 mmHg 20%
    15:00 +38°C° 0 mm 4 mps 754 mmHg 19%
    16:00 +37°C° 0 mm 4 mps 754 mmHg 20%
    17:00 +37°C° 0 mm 4 mps 754 mmHg 21%
    18:00 +36°C° 0 mm 4 mps 754 mmHg 22%
    19:00 +34°C° 0 mm 4 mps 754 mmHg 25%
    20:00 +32°C° 0 mm 4 mps 754 mmHg 28%
    21:00 +29°C° 0 mm 4 mps 755 mmHg 31%
    22:00 +29°C° 0 mm 4 mps 755 mmHg 32%
    23:00 +28°C° 0 mm 4 mps 755 mmHg 34%

    Day after tomorrow, 16 August, Thursday

    Time Temperature Precipitation Wind Pressure Humidity
    00:00 +28°C° 0 mm 4 mps 755 mmHg 35%
    01:00 +27°C° 0 mm 4 mps 755 mmHg 37%
    02:00 +26°C° 0 mm 3 mps 755 mmHg 38%
    03:00 +26°C° 0 mm 3 mps 755 mmHg 40%
    04:00 +25°C° 0 mm 3 mps 755 mmHg 41%
    05:00 +25°C° 0 mm 3 mps 755 mmHg 43%
    06:00 +25°C° 0 mm 3 mps 755 mmHg 44%
    07:00 +27°C° 0 mm 3 mps 755 mmHg 39%
    08:00 +30°C° 0 mm 4 mps 755 mmHg 33%
    09:00 +33°C° 0 mm 4 mps 755 mmHg 28%
    10:00 +35°C° 0 mm 5 mps 755 mmHg 26%
    11:00 +36°C° 0 mm 5 mps 755 mmHg 24%
    12:00 +38°C° 0 mm 6 mps 754 mmHg 22%
    13:00 +38°C° 0 mm 6 mps 754 mmHg 21%
    14:00 +38°C° 0 mm 6 mps 754 mmHg 21%
    15:00 +39°C° 0 mm 6 mps 753 mmHg 20%
    16:00 +37°C° 0 mm 5 mps 753 mmHg 21%
    17:00 +37°C° 0 mm 5 mps 753 mmHg 21%
    18:00 +36°C° 0 mm 5 mps 753 mmHg 22%
    19:00 +34°C° 0 mm 4 mps 753 mmHg 25%
    20:00 +31°C° 0 mm 3 mps 753 mmHg 27%
    21:00 +29°C° 0 mm 3 mps 753 mmHg 30%
    22:00 +29°C° 0 mm 3 mps 753 mmHg 31%
    23:00 +28°C° 0 mm 3 mps 753 mmHg 32%

    17 August, Friday

    Time Temperature Precipitation Wind Pressure Humidity
    00:00 +27°C° 0 mm 3 mps 753 mmHg 34%
    01:00 +27°C° 0 mm 3 mps 753 mmHg 36%
    02:00 +26°C° 0 mm 3 mps 753 mmHg 39%
    03:00 +26°C° 0 mm 3 mps 753 mmHg 41%
    04:00 +25°C° 0 mm 3 mps 753 mmHg 43%
    05:00 +25°C° 0 mm 3 mps 753 mmHg 44%
    06:00 +25°C° 0 mm 3 mps 754 mmHg 46%
    07:00 +27°C° 0 mm 3 mps 754 mmHg 40%
    08:00 +30°C° 0 mm 3 mps 754 mmHg 33%
    09:00 +33°C° 0 mm 4 mps 754 mmHg 27%
    10:00 +35°C° 0 mm 5 mps 753 mmHg 24%
    11:00 +36°C° 0 mm 5 mps 753 mmHg 22%
    12:00 +38°C° 0 mm 6 mps 753 mmHg 19%
    13:00 +39°C° 0 mm 6 mps 752 mmHg 18%
    14:00 +39°C° 0 mm 6 mps 752 mmHg 17%
    15:00 +39°C° 0 mm 6 mps 752 mmHg 17%
    16:00 +39°C° 0 mm 5 mps 752 mmHg 17%
    17:00 +37°C° 0 mm 5 mps 752 mmHg 18%
    18:00 +36°C° 0 mm 4 mps 751 mmHg 19%
    19:00 +34°C° 0 mm 4 mps 752 mmHg 21%
    20:00 +33°C° 0 mm 4 mps 752 mmHg 24%
    21:00 +30°C° 0 mm 4 mps 752 mmHg 26%
    22:00 +29°C° 0 mm 4 mps 752 mmHg 26%
    23:00 +28°C° 0 mm 4 mps 752 mmHg 26%

    18 August, Saturday

    Time Temperature Precipitation Wind Pressure Humidity
    00:00 +28°C° 0 mm 4 mps 752 mmHg 26%
    01:00 +27°C° 0 mm 4 mps 752 mmHg 25%
    02:00 +27°C° 0 mm 4 mps 752 mmHg 24%
    03:00 +27°C° 0 mm 4 mps 752 mmHg 24%
    04:00 +26°C° 0 mm 4 mps 752 mmHg 25%
    05:00 +26°C° 0 mm 4 mps 752 mmHg 26%
    06:00 +26°C° 0 mm 3 mps 752 mmHg 28%
    07:00 +28°C° 0.1 mm 4 mps 752 mmHg 26%
    08:00 +30°C° 0.1 mm 4 mps 753 mmHg 25%
    09:00 +33°C° 0.1 mm 5 mps 753 mmHg 24%
    10:00 +34°C° 0 mm 5 mps 753 mmHg 22%
    11:00 +36°C° 0 mm 5 mps 752 mmHg 21%
    12:00 +37°C° 0 mm 5 mps 752 mmHg 19%
    13:00 +37°C° 0 mm 5 mps 752 mmHg 18%
    14:00 +39°C° 0 mm 5 mps 752 mmHg 17%
    15:00 +39°C° 0 mm 5 mps 752 mmHg 17%
    16:00 +37°C° 0 mm 5 mps 752 mmHg 19%
    17:00 +36°C° 0 mm 5 mps 752 mmHg 21%
    18:00 +35°C° 0 mm 5 mps 752 mmHg 22%
    19:00 +34°C° 0 mm 5 mps 752 mmHg 27%
    20:00 +32°C° 0 mm 5 mps 753 mmHg 31%
    21:00 +30°C° 0 mm 6 mps 753 mmHg 35%
    22:00 +29°C° 0 mm 6 mps 753 mmHg 37%
    23:00 +28°C° 0 mm 6 mps 753 mmHg 38%

    19 August, Sunday

    Time Temperature Precipitation Wind Pressure Humidity
    00:00 +27°C° 0 mm 6 mps 754 mmHg 40%
    01:00 +27°C° 0 mm 5 mps 754 mmHg 40%
    02:00 +26°C° 0 mm 5 mps 754 mmHg 40%
    03:00 +25°C° 0 mm 5 mps 754 mmHg 40%
    04:00 +25°C° 0 mm 5 mps 754 mmHg 41%
    05:00 +23°C° 0 mm 5 mps 755 mmHg 41%
    06:00 +23°C° 0 mm 5 mps 755 mmHg 42%
    07:00 +25°C° 0 mm 5 mps 755 mmHg 39%
    08:00 +27°C° 0 mm 6 mps 755 mmHg 36%
    09:00 +28°C° 0 mm 6 mps 755 mmHg 33%
    10:00 +29°C° 0 mm 6 mps 755 mmHg 31%
    11:00 +32°C° 0 mm 6 mps 755 mmHg 29%
    12:00 +33°C° 0 mm 5 mps 755 mmHg 27%
    13:00 +33°C° 0 mm 6 mps 755 mmHg 25%
    14:00 +33°C° 0 mm 6 mps 755 mmHg 24%
    15:00 +34°C° 0 mm 6 mps 754 mmHg 22%
    16:00 +33°C° 0 mm 6 mps 754 mmHg 22%
    17:00 +32°C° 0 mm 6 mps 754 mmHg 21%
    18:00 +32°C° 0 mm 5 mps 754 mmHg 21%
    19:00 +29°C° 0 mm 5 mps 755 mmHg 23%
    20:00 +27°C° 0 mm 5 mps 755 mmHg 25%
    21:00 +25°C° 0 mm 4 mps 755 mmHg 27%
    22:00 +23°C° 0 mm 4 mps 755 mmHg 29%
    23:00 +23°C° 0 mm 4 mps 755 mmHg 30%
    Show more